[[{"header":{"parameterUnit":"m.s-1","parameterCategory":1,"la1":30.2991,"la2":30.254,"lo1":-89.0895,"lo2":-89.0444,"dy":0.0017,"dx":0.0017,"nx":28,"ny":28,"refTime":"2024-03-07T03:00:00:Z","depth":0,"parameterNumber":2,"parameterNumberName":"U-component_of_WINDS"},"data":[0,0,0,0,0,0,0,0,0,0,0,0,0,0,0,0,0,0,0,0,0,0,0,0,0,0,0,0,0,0,0,0,0,0,0,0,0,0,0,0,0,0,0,0,0,0,0,0,0,0,0,0,0,0,0,0,0,0,-5.5307,-5.5308,0,-5.5445,-5.5447,-5.5449,-5.5443,-5.5441,-5.5439,-5.5438,-5.5575,-5.558,-5.5586,0,0,0,0,0,0,0,0,0,0,0,0,0,-5.5035,-5.504,-5.5307,-5.5309,-5.531,-5.5445,-5.5447,-5.5449,-5.5444,-5.5441,-5.5439,-5.5437,-5.5573,-5.5579,-5.5586,0,0,0,0,0,0,0,0,0,0,0,0,0,-5.5161,-5.5041,-5.5307,-5.5324,-5.5327,-5.5445,-5.5447,-5.5449,-5.5444,-5.5441,-5.5438,-5.5436,-5.5571,-5.5579,-5.5587,-5.5695,0,0,-5.5612,-5.5615,0,0,0,0,0,0,0,0,-5.5154,-5.5171,-5.532,-5.5323,-5.5327,-5.5424,-5.5401,-5.5532,-5.5445,-5.5399,-5.5437,-5.5434,-5.5527,-5.5538,-5.5571,-5.5701,-5.5707,-5.5613,-5.5618,-5.5621,-5.5623,0,0,0,0,0,0,0,-5.5145,-5.5165,-5.5361,-5.5322,-5.5326,-5.5324,-5.5339,-5.5426,-5.5477,-5.5403,-5.5403,-5.542,-5.5528,-5.5563,-5.5574,-5.5709,-5.5612,-5.562,-5.5625,-5.5628,-5.5936,-5.5939,0,0,0,0,0,0,-5.5133,-5.5158,-5.5357,-5.5366,-5.5231,-5.5331,-5.5348,-5.5396,-5.5476,-5.5486,-5.5422,-5.5419,-5.555,-5.5564,-5.5578,-5.5709,-5.5621,-5.5629,-5.5633,-5.5933,-5.5937,-5.594,0,0,0,0,0,0,-5.5127,-5.5151,-5.5351,-5.5262,-5.5287,-5.5339,-5.5393,-5.54,-5.5434,-5.5491,-5.55,-5.5448,-5.5548,-5.5567,-5.5666,-5.5714,-5.5632,-5.564,-5.5929,-5.5934,-5.5939,-5.5972,0,0,0,0,0,0,-5.5119,-5.5149,-5.5191,-5.5263,-5.5292,-5.5438,-5.5396,-5.5405,-5.5449,-5.5446,-5.5518,-5.5527,-5.5548,-5.5654,-5.5675,-5.5724,-5.5646,-5.5925,-5.5931,-5.5937,-5.5967,-5.5978,-5.5987,0,0,0,0,0,-5.511,-5.5194,-5.5193,-5.5217,-5.5346,-5.5441,-5.5457,-5.5481,-5.5453,-5.5495,-5.5532,-5.5524,-5.5707,-5.5664,-5.5687,-5.574,-5.5922,-5.5929,-5.5937,-5.5962,-5.5976,-5.5987,0,0,0,0,0,0,-5.5124,-5.5203,-5.5203,-5.5313,-5.5371,-5.544,-5.5493,-5.5494,-5.5559,-5.5553,-5.5579,-5.5595,-5.5694,-5.5728,-5.5679,-5.5849,-5.581,-5.5823,-5.5822,-5.5835,-5.5845,-5.5833,-5.5653,0,0,0,0,0,-5.514,-5.5212,-5.5277,-5.5368,-5.5397,-5.5441,-5.5483,-5.5496,-5.5556,-5.5579,-5.5623,-5.568,-5.575,-5.5795,-5.5863,-5.5974,-5.5988,-5.6021,-5.6031,-5.6039,-5.6048,-5.6108,-5.6123,-5.5965,-5.5965,-5.5964,0,0,-5.5173,-5.5226,-5.5269,-5.5372,-5.5418,-5.549,-5.546,-5.5538,-5.5591,-5.559,-5.5686,-5.5722,-5.5787,-5.5892,-5.5941,-5.5923,-5.6096,-5.6048,-5.6054,-5.6059,-5.6117,-5.6132,-5.6145,-5.597,-5.5969,-5.5968,0,0,-5.527,-5.5318,-5.5399,-5.5446,-5.5517,-5.5546,-5.5566,-5.5636,-5.5659,-5.5757,-5.5758,-5.5822,-5.5942,-5.5989,-5.6028,-5.6146,-5.6141,-5.6168,-5.6218,-5.6276,-5.6289,-5.63,-5.634,-5.6354,-5.6178,-5.6178,-5.6178,0,-5.5302,-5.5412,-5.544,-5.5518,-5.5563,-5.5569,-5.565,-5.5694,-5.5783,-5.5813,-5.5793,-5.5945,-5.599,-5.6105,-5.6134,-5.6167,-5.6189,-5.6157,-5.6285,-5.6296,-5.6307,-5.6345,-5.6361,-5.618,-5.618,-5.618,-5.618,0,-5.5446,-5.5523,-5.5579,-5.5666,-5.5718,-5.5798,-5.5837,-5.5886,-5.5897,-5.5927,-5.6027,-5.6082,-5.616,-5.619,-5.62,-5.6307,-5.6294,-5.628,-5.6241,-5.6324,-5.636,-5.6375,-5.6184,-5.6183,-5.6182,-5.6182,0,0,-5.5551,-5.5655,-5.5675,-5.5715,-5.5795,-5.5854,-5.5935,-5.6013,-5.6054,-5.6117,-5.6183,-5.6286,-5.6274,-5.6319,-5.6335,-5.6387,-5.6475,-5.6366,-5.6368,-5.6382,-5.6595,-5.6602,-5.6619,-5.6474,-5.6477,-5.648,-5.6588,0,-5.5653,-5.5796,-5.5825,-5.5948,-5.6019,-5.6027,-5.6097,-5.6153,-5.6186,-5.6249,-5.6285,-5.6357,-5.6336,-5.6363,-5.6415,-5.6453,-5.6517,-5.6446,-5.6534,-5.6536,-5.6513,-5.6638,-5.6646,-5.6745,-5.6603,-5.6605,-5.6607,0,-5.5791,-5.5858,-5.5989,-5.6061,-5.6092,-5.6154,-5.6229,-5.6291,-5.6355,-5.6375,-5.6427,-5.6438,-5.652,-5.6482,-5.6595,-5.6546,-5.6585,-5.6609,-5.6614,-5.6619,-5.6573,-5.6644,-5.6778,-5.6791,-5.663,-5.6628,-5.6627,0,-5.5851,-5.5974,-5.6068,-5.6103,-5.619,-5.6233,-5.6271,-5.6333,-5.6379,-5.6445,-5.6475,-5.6549,-5.6589,-5.6646,-5.6677,-5.6646,-5.6788,-5.6752,-5.6804,-5.6803,-5.6829,-5.6826,-5.6968,-5.6861,-5.6861,-5.686,-5.686,0,-5.596,-5.6038,-5.6096,-5.6154,-5.6242,-5.6276,-5.6362,-5.64,-5.6456,-5.652,-5.6533,-5.6592,-5.6632,-5.6697,-5.6722,-5.6811,-5.683,-5.6847,-5.6851,-5.6843,-5.6841,-5.6865,-5.6858,-5.6864,-5.6863,-5.6863,-5.6862,0,-5.6039,-5.6081,-5.6184,-5.6259,-5.628,-5.6342,-5.6406,-5.6462,-5.6496,-5.6577,-5.6598,-5.6651,-5.6728,-5.6766,-5.6862,-5.6879,-5.6979,-5.6982,-5.6957,-5.6958,-5.7008,-5.7001,-5.7167,-5.7189,-5.707,-5.7071,-5.7072,0,-5.6104,-5.6165,-5.6248,-5.6292,-5.6332,-5.6404,-5.6452,-5.6488,-5.6537,-5.6617,-5.6662,-5.6741,-5.6806,-5.6929,-5.6975,-5.7049,-5.7051,-5.7104,-5.7062,-5.7052,-5.7048,-5.7042,-5.7048,-5.711,-5.7111,-5.7112,-5.7113,0,-5.6213,-5.6232,-5.6301,-5.6378,-5.6435,-5.6497,-5.6558,-5.6594,-5.664,-5.6694,-5.6775,-5.6825,-5.6925,-5.7002,-5.708,-5.7118,-5.7122,-5.7127,-5.7142,-5.7132,-5.7114,-5.7122,-5.6974,-5.7122,-5.7121,-5.712,-5.712,-5.7119,-5.6285,-5.6339,-5.6407,-5.6483,-5.6534,-5.6591,-5.6647,-5.669,-5.6758,-5.6842,-5.6861,-5.6945,-5.701,-5.7115,-5.7156,-5.7222,-5.721,-5.7233,-5.7238,-5.7242,-5.7243,-5.7108,-5.7237,-5.7237,-5.7237,-5.7236,-5.7236,0,-5.6392,-5.6437,-5.6508,-5.6593,-5.6654,-5.6657,-5.6725,-5.6775,-5.685,-5.6911,-5.6975,-5.7067,-5.7144,-5.7197,-5.7274,-5.7317,-5.7321,-5.7336,-5.7331,-5.7339,-5.7251,-5.7229,-5.7331,-5.7331,-5.7331,-5.7331,-5.7331,-5.7331,-5.6455,-5.6547,-5.6574,-5.6692,-5.6736,-5.682,-5.6859,-5.6912,-5.696,-5.7063,-5.7127,-5.7163,-5.7221,-5.7303,-5.7373,-5.7387,-5.7413,-5.7427,-5.744,-5.7356,-5.7345,-5.7336,-5.7314,-5.7433,-5.7433,-5.7522,-5.7523,-5.7524]},{"header":{"parameterUnit":"m.s-1","parameterCategory":1,"la1":30.2991,"la2":30.254,"lo1":-89.0895,"lo2":-89.0444,"dy":0.0017,"dx":0.0017,"nx":28,"ny":28,"refTime":"2024-03-07T03:00:00:Z","depth":0,"parameterNumber":3,"parameterNumberName":"V-component_of_WINDS"},"data":[0,0,0,0,0,0,0,0,0,0,0,0,0,0,0,0,0,0,0,0,0,0,0,0,0,0,0,0,0,0,0,0,0,0,0,0,0,0,0,0,0,0,0,0,0,0,0,0,0,0,0,0,0,0,0,0,0,0,2.4189,2.419,0,2.4285,2.4286,2.4287,2.4306,2.4305,2.4304,2.4304,2.4401,2.4404,2.4407,0,0,0,0,0,0,0,0,0,0,0,0,0,2.4022,2.4025,2.4188,2.419,2.4191,2.4284,2.4286,2.4287,2.4306,2.4305,2.4304,2.4303,2.4399,2.4403,2.4407,0,0,0,0,0,0,0,0,0,0,0,0,0,2.4104,2.4026,2.4188,2.4212,2.4215,2.4284,2.4286,2.4287,2.4306,2.4305,2.4304,2.4303,2.4398,2.4403,2.4408,2.446,0,0,2.4423,2.4425,0,0,0,0,0,0,0,0,2.4099,2.411,2.4207,2.421,2.4214,2.4282,2.4263,2.4345,2.4306,2.4271,2.4304,2.4302,2.4362,2.437,2.439,2.4465,2.4469,2.4423,2.4426,2.4428,2.443,0,0,0,0,0,0,0,2.4093,2.4106,2.4226,2.4208,2.4212,2.4218,2.4228,2.4278,2.4322,2.4274,2.4276,2.4287,2.4364,2.4385,2.4393,2.447,2.4423,2.4427,2.443,2.4432,2.4596,2.4598,0,0,0,0,0,0,2.4084,2.4101,2.4223,2.4229,2.4153,2.4221,2.4233,2.4261,2.4321,2.4329,2.4288,2.4288,2.4378,2.4387,2.4396,2.4464,2.4428,2.4433,2.4436,2.4595,2.4596,2.4598,0,0,0,0,0,0,2.408,2.4094,2.422,2.4166,2.4182,2.4225,2.4257,2.4264,2.4286,2.4332,2.4339,2.4302,2.4377,2.4389,2.4445,2.4467,2.4435,2.444,2.4593,2.4595,2.4597,2.4598,0,0,0,0,0,0,2.4075,2.4093,2.4113,2.4166,2.4185,2.4267,2.4258,2.4266,2.4294,2.4295,2.4347,2.4355,2.4377,2.4438,2.445,2.4473,2.4443,2.4591,2.4594,2.4597,2.4596,2.46,2.4603,0,0,0,0,0,2.4069,2.4108,2.4114,2.4129,2.4211,2.4268,2.4279,2.4304,2.4296,2.4317,2.4347,2.4353,2.4463,2.4443,2.4457,2.4482,2.459,2.4593,2.4596,2.4595,2.4599,2.4603,0,0,0,0,0,0,2.4056,2.4116,2.4122,2.418,2.4219,2.4271,2.4298,2.4308,2.4349,2.4348,2.4377,2.4389,2.4444,2.4468,2.4446,2.4538,2.4526,2.4532,2.452,2.4524,2.4528,2.4521,2.4447,0,0,0,0,0,2.406,2.4101,2.4151,2.4197,2.4217,2.4254,2.428,2.4296,2.4337,2.4354,2.4388,2.4427,2.4471,2.4499,2.4541,2.46,2.4612,2.4624,2.4628,2.463,2.4635,2.467,2.4677,2.4608,2.4608,2.4608,0,0,2.4068,2.4106,2.413,2.4196,2.4228,2.4271,2.4268,2.4312,2.4345,2.436,2.4416,2.4442,2.4488,2.4547,2.4574,2.4569,2.4657,2.4634,2.4636,2.464,2.4674,2.4681,2.4687,2.4611,2.461,2.461,0,0,2.4106,2.4138,2.4181,2.4214,2.4263,2.4288,2.4298,2.4349,2.4368,2.4424,2.4438,2.4477,2.455,2.4584,2.461,2.4663,2.4671,2.4676,2.4694,2.4728,2.4733,2.4738,2.4759,2.4765,2.4681,2.4681,2.4681,0,2.411,2.4175,2.4202,2.4247,2.4276,2.4294,2.4338,2.4368,2.4428,2.4448,2.4442,2.4538,2.4569,2.4637,2.465,2.467,2.4684,2.467,2.473,2.4735,2.474,2.476,2.4768,2.4681,2.4681,2.4681,2.4681,0,2.4178,2.4223,2.4252,2.4312,2.4344,2.4388,2.4423,2.4452,2.4467,2.4493,2.4551,2.459,2.4642,2.4659,2.4673,2.4729,2.4725,2.4724,2.4713,2.4747,2.4766,2.4774,2.4682,2.4681,2.4681,2.4681,0,0,2.4209,2.4284,2.4295,2.4323,2.4379,2.4415,2.4461,2.4513,2.4538,2.458,2.462,2.4683,2.4684,2.4714,2.4731,2.4761,2.4803,2.4757,2.4758,2.4765,2.487,2.4871,2.4879,2.4808,2.481,2.4811,2.4867,0,2.4255,2.4338,2.4365,2.4434,2.4477,2.4496,2.4536,2.4575,2.4601,2.4642,2.467,2.4715,2.4711,2.473,2.476,2.4791,2.4824,2.4787,2.4847,2.4849,2.4836,2.4889,2.4891,2.4941,2.4874,2.4875,2.4876,0,2.4319,2.4363,2.4437,2.449,2.4509,2.4545,2.4596,2.4634,2.468,2.4697,2.4732,2.4748,2.4797,2.4783,2.4853,2.4827,2.4853,2.4872,2.4875,2.4882,2.4865,2.49,2.4957,2.4966,2.4888,2.4887,2.4886,0,2.4336,2.4414,2.4469,2.4492,2.4555,2.458,2.4608,2.4652,2.4683,2.4727,2.4747,2.4796,2.4824,2.4862,2.4891,2.4877,2.4959,2.4946,2.4975,2.4974,2.4992,2.4991,2.5056,2.5006,2.5006,2.5006,2.5006,0,2.4385,2.443,2.4478,2.4512,2.4564,2.4594,2.4645,2.4673,2.4713,2.4753,2.4771,2.4809,2.4845,2.4887,2.491,2.4966,2.4977,2.4993,2.4999,2.4992,2.499,2.501,2.5008,2.5008,2.5007,2.5007,2.5007,0,2.4414,2.4447,2.4509,2.4564,2.4579,2.4615,2.4663,2.4697,2.4724,2.4775,2.4789,2.4832,2.4883,2.4916,2.498,2.4996,2.5057,2.5061,2.5042,2.5045,2.5073,2.5071,2.5155,2.5168,2.5108,2.5108,2.5109,0,2.4443,2.4479,2.4538,2.4567,2.4595,2.4641,2.4673,2.4704,2.4737,2.4793,2.482,2.4873,2.4917,2.4998,2.5035,2.5085,2.5091,2.5117,2.5099,2.5092,2.5094,2.5092,2.5097,2.5121,2.5121,2.5121,2.5122,0,2.4493,2.4508,2.4553,2.4605,2.4643,2.4684,2.4726,2.4749,2.4788,2.4823,2.4877,2.4911,2.4978,2.5031,2.5085,2.5113,2.5125,2.5127,2.5137,2.5131,2.512,2.5129,2.5052,2.5125,2.5125,2.5125,2.5125,2.5124,2.4524,2.4558,2.4606,2.4656,2.4691,2.473,2.4766,2.4798,2.4844,2.4901,2.4917,2.4973,2.502,2.5094,2.5124,2.5168,2.5165,2.5178,2.5182,2.5185,2.5187,2.5112,2.5178,2.5178,2.5178,2.5178,2.5178,0,2.4577,2.4609,2.4655,2.4714,2.4754,2.4762,2.4809,2.4842,2.4891,2.4934,2.4977,2.504,2.5091,2.5133,2.5186,2.5214,2.5221,2.5227,2.5226,2.5233,2.5186,2.5173,2.5221,2.5221,2.5221,2.5221,2.5221,2.5221,2.4609,2.4667,2.4688,2.4764,2.4796,2.4852,2.4878,2.4915,2.495,2.5019,2.5062,2.5089,2.5132,2.5189,2.5237,2.5248,2.5268,2.5273,2.5285,2.5241,2.5236,2.5231,2.522,2.5277,2.5277,2.5329,2.533,2.533]}]]